DEFMD EDWC-EDXH

Flight info

Callsign DEFMD
Flight time N/A
Altitude 5500
Route EDWC EDXH
Aircraft DR40/L-SFG/C

Departure

Time 2026-04-26 12:44
Airport Damme Airfield (EDWC)

Arrival

Time N/A
Airport Helgoland-Düne Airport (EDXH)
Time Latitude Longitude Altitude Speed Heading
2026-04-26 12:38 52.48864 8.18232 149 ft 0 kts 89°
2026-04-26 12:41 52.48854 8.18247 149 ft 5 kts 184°
2026-04-26 12:42 52.48841 8.18221 149 ft 3 kts 284°
2026-04-26 12:42 52.48852 8.18143 150 ft 8 kts 283°
2026-04-26 12:42 52.48860 8.18073 150 ft 3 kts 232°
2026-04-26 12:42 52.48830 8.18046 150 ft 6 kts 256°
2026-04-26 12:43 52.48827 8.18034 150 ft 1 kts 94°
2026-04-26 12:43 52.48812 8.18136 150 ft 34 kts 98°
2026-04-26 12:43 52.48720 8.18802 233 ft 73 kts 95°
2026-04-26 12:43 52.48634 8.19590 527 ft 71 kts 89°
2026-04-26 12:44 52.48796 8.20298 836 ft 65 kts 36°
2026-04-26 12:44 52.49225 8.20429 1148 ft 66 kts 340°
2026-04-26 12:44 52.49625 8.20004 1412 ft 74 kts 322°
2026-04-26 12:44 52.50055 8.19468 1677 ft 82 kts 325°
2026-04-26 12:45 52.50563 8.18993 1974 ft 85 kts 335°
2026-04-26 12:45 52.51107 8.18651 2297 ft 84 kts 342°
2026-04-26 12:45 52.51659 8.18403 2633 ft 81 kts 346°
2026-04-26 12:45 52.52188 8.18221 2993 ft 75 kts 348°
2026-04-26 12:46 52.52687 8.18076 3291 ft 75 kts 349°
2026-04-26 12:46 52.53209 8.17948 3572 ft 77 kts 351°
2026-04-26 12:46 52.53742 8.17835 3852 ft 78 kts 351°
2026-04-26 12:46 52.54277 8.17735 4127 ft 79 kts 352°
2026-04-26 12:47 52.54829 8.17639 4406 ft 80 kts 352°
2026-04-26 12:47 52.55377 8.17549 4681 ft 80 kts 352°
2026-04-26 12:47 52.55928 8.17461 4957 ft 80 kts 352°
2026-04-26 12:47 52.56478 8.17375 5234 ft 79 kts 352°
2026-04-26 12:48 52.57021 8.17290 5512 ft 78 kts 352°
2026-04-26 12:48 52.57549 8.17208 5783 ft 76 kts 352°
2026-04-26 12:48 52.58099 8.17124 5834 ft 85 kts 354°
2026-04-26 12:48 52.58699 8.17042 5808 ft 85 kts 354°
2026-04-26 12:49 52.59283 8.16958 5806 ft 83 kts 353°
2026-04-26 12:49 52.59868 8.16872 5811 ft 85 kts 353°
2026-04-26 12:49 52.60457 8.16785 5813 ft 86 kts 353°
2026-04-26 12:49 52.61063 8.16693 5815 ft 87 kts 353°
2026-04-26 12:50 52.61673 8.16600 5816 ft 88 kts 353°
2026-04-26 12:50 52.62299 8.16505 5815 ft 89 kts 353°
2026-04-26 12:50 52.62922 8.16410 5815 ft 90 kts 353°
2026-04-26 12:50 52.63548 8.16315 5813 ft 90 kts 353°
2026-04-26 12:51 52.64178 8.16218 5811 ft 91 kts 353°
2026-04-26 12:51 52.64807 8.16122 5811 ft 91 kts 353°
2026-04-26 12:51 52.65442 8.16025 5811 ft 91 kts 353°
2026-04-26 12:51 52.66072 8.15928 5814 ft 91 kts 353°
2026-04-26 12:52 52.66703 8.15831 5815 ft 91 kts 353°
2026-04-26 12:52 52.67344 8.15732 5817 ft 92 kts 353°